EDT,Max TemperatureF,Mean TemperatureF,Min TemperatureF,Max Dew PointF,MeanDew PointF,Min DewpointF,Max Humidity, Mean Humidity, Min Humidity, Max Sea Level PressureIn, Mean Sea Level PressureIn, Min Sea Level PressureIn, Max VisibilityMiles, Mean VisibilityMiles, Min VisibilityMiles, Max Wind SpeedMPH, Mean Wind SpeedMPH, Max Gust SpeedMPH,PrecipitationIn, CloudCover, Events, WindDirDegrees
2013-4-1,48,42,33,45,33,21,93,67,46,30.13,30.00,29.86,10,10,10,14,8,20,0.00,6,,323
2013-4-2,46,36,26,23,20,16,80,51,32,30.27,30.21,30.13,10,10,10,10,4,,0.00,0,,335
2013-4-3,48,37,26,21,18,12,80,48,29,30.40,30.32,30.25,10,10,10,14,5,20,0.00,0,,66
2013-4-4,51,42,33,32,22,16,70,45,35,30.30,30.13,30.02,10,10,10,12,7,,0.00,2,,110
2013-4-5,62,46,30,34,31,27,100,59,30,30.14,30.05,30.00,10,10,10,14,4,17,0.00,0,,330
2013-4-6,69,54,39,37,31,23,65,43,25,30.21,30.11,29.99,10,10,10,10,6,,0.00,0,,158
2013-4-7,71,63,55,46,41,34,67,44,35,30.04,30.01,29.98,10,10,10,25,12,33,0.00,4,,244
2013-4-8,73,63,53,52,47,41,88,56,43,30.05,30.01,29.95,10,10,10,24,8,34,0.00,5,,231
2013-4-9,78,66,53,57,53,50,88,61,42,30.13,30.07,30.01,10,10,10,21,8,30,0.00,2,Rain,238
2013-4-10,80,70,59,61,56,52,82,61,42,30.05,29.98,29.85,10,10,10,24,8,31,0.00,2,,232
2013-4-11,77,66,55,63,56,54,100,71,50,29.86,29.76,29.57,10,9,3,24,7,46,0.64,4,Rain,230
2013-4-12,59,50,42,57,40,34,100,72,54,29.97,29.79,29.56,10,10,5,20,11,29,0.47,7,Rain,279
2013-4-13,59,47,35,37,35,32,93,67,42,30.08,30.03,29.97,10,10,10,17,7,25,0.00,1,,273
2013-4-14,73,55,37,46,39,36,93,59,25,30.08,30.01,29.90,10,10,10,12,4,21,0.00,1,Rain,153
2013-4-15,71,63,53,55,51,46,94,70,53,30.05,30.01,29.96,10,10,10,12,6,18,0.00,5,Rain,198
2013-4-16,80,68,55,63,58,52,94,70,51,30.20,30.11,30.01,10,10,10,20,9,26,0.00,3,Rain,242
2013-4-17,71,65,59,63,60,59,100,87,69,30.23,30.15,30.03,10,10,2,21,7,25,0.01,3,Rain,183
2013-4-18,82,72,62,61,56,50,77,58,37,30.03,29.92,29.71,10,10,10,23,12,33,0.00,0,,211
2013-4-19,73,57,39,61,42,32,100,73,50,30.07,29.81,29.56,10,9,2,23,16,32,0.74,7,Rain,267
2013-4-20,53,44,35,32,31,27,87,62,38,30.38,30.22,30.07,10,10,10,15,8,22,0.00,1,,291
2013-4-21,59,46,33,32,30,28,81,51,34,30.50,30.41,30.34,10,10,10,13,8,17,0.00,0,,75
2013-4-22,68,55,42,45,36,27,93,50,37,30.36,30.27,30.17,10,10,10,10,6,,0.00,0,,121
2013-4-23,69,56,42,50,45,37,100,65,46,30.18,30.10,29.98,10,10,10,12,5,17,0.00,1,,218
2013-4-24,62,52,42,55,46,37,100,75,55,30.26,30.00,29.85,10,10,3,23,10,40,0.33,5,Rain,256
2013-4-25,59,46,33,41,35,32,100,68,39,30.38,30.32,30.27,10,10,5,12,4,18,0.00,3,,277
2013-4-26,60,46,33,45,34,30,100,57,36,30.47,30.41,30.35,10,10,10,10,3,,0.00,1,,71
2013-4-27,59,54,48,54,46,37,100,77,51,30.37,30.26,30.09,10,10,4,14,3,18,0.03,7,Rain,153
2013-4-28,68,60,53,55,54,52,100,86,64,30.09,29.96,29.88,10,9,5,20,9,25,0.54,7,Rain,208
2013-4-29,62,56,50,55,53,50,100,87,68,30.06,30.01,29.96,10,8,2,8,4,,0.00,7,,256
2013-4-30,77,60,44,59,52,45,100,75,44,30.09,30.05,30.00,10,8,2,7,3,,0.00,0,,176